QPF
0.00 0.01 0.02 0.01 0.01 0.01 0.02 0.01 0.01 0.01 0.01 0.01 0.01 0.01 0.01 0.01 0.01 0.01 0.01 0.01 0.00 0.01 0.03 0.04 0.02 0.01 0.01 0.01 0.01 0.01 0.01 0.02 0.02 0.02 0.02 0.03 0.03 0.04 0.05 0.05 0.04 0.04 0.04 0.03
0.00 0.01 0.01 0.01 0.00 0.01 0.01 0.01 0.01 0.01 0.01 0.01 0.02 0.02 0.01 0.01 0.01 0.01 0.01 0.01 0.00 0.02 0.06 0.08 0.03 0.01 0.01 0.01 0.01 0.01 0.00 0.01 0.01 0.02 0.02 0.03 0.03 0.05 0.06 0.06 0.06 0.05 0.03 0.03
0.00 0.01 0.01 0.01 0.01 0.01 0.00 0.00 0.01 0.01 0.01 0.02 0.02 0.03 0.02 0.02 0.02 0.01 0.01 0.01 0.01 0.01 0.03 0.05 0.01 0.00 0.01 0.01 0.01 0.00 0.00 0.01 0.01 0.02 0.02 0.03 0.03 0.05 0.06 0.06 0.07 0.08 0.07 0.04
0.00 0.01 0.01 0.01 0.01 0.01 0.01 0.01 0.01 0.01 0.02 0.02 0.02 0.02 0.02 0.02 0.02 0.02 0.02 0.02 0.02 0.02 0.01 0.02 0.00 0.00 0.00 0.01 0.01 0.01 0.01 0.01 0.01 0.01 0.02 0.02 0.02 0.02 0.04 0.05 0.06 0.06 0.05 0.04
0.00 0.01 0.01 0.01 0.01 0.01 0.01 0.01 0.01 0.01 0.02 0.02 0.02 0.02 0.03 0.03 0.02 0.03 0.03 0.04 0.04 0.01 0.01 0.02 0.01 0.01 0.01 0.01 0.01 0.01 0.02 0.02 0.02 0.02 0.03 0.03 0.02 0.02 0.02 0.04 0.05 0.04 0.05 0.04
0.00 0.00 0.01 0.01 0.01 0.02 0.02 0.01 0.01 0.02 0.03 0.05 0.04 0.03 0.03 0.02 0.02 0.02 0.03 0.05 0.08 0.03 0.02 0.04 0.01 0.01 0.02 0.02 0.04 0.06 0.03 0.02 0.02 0.02 0.03 0.01 0.01 0.02 0.02 0.03 0.03 0.04 0.04 0.03
0.00 0.00 0.00 0.00 0.01 0.02 0.02 0.02 0.03 0.05 0.07 0.04 0.02 0.02 0.01 0.01 0.02 0.01 0.01 0.03 0.04 0.03 0.09 0.20 0.12 0.11 0.06 0.04 0.11 0.12 0.03 0.02 0.02 0.01 0.01 0.01 0.01 0.02 0.02 0.03 0.03 0.02 0.02 0.03
0.00 0.00 0.00 0.00 0.01 0.01 0.01 0.02 0.04 0.06 0.05 0.03 0.02 0.02 0.01 0.02 0.02 0.02 0.03 0.04 0.04 0.05 0.08 0.18 0.08 0.08 0.08 0.09 0.05 0.04 0.03 0.02 0.02 0.02 0.02 0.01 0.01 0.01 0.02 0.02 0.02 0.02 0.02 0.03
0.00 0.00 0.01 0.01 0.01 0.00 0.01 0.02 0.02 0.03 0.03 0.04 0.03 0.02 0.02 0.02 0.02 0.02 0.03 0.05 0.06 0.05 0.05 0.08 0.08 0.03 0.04 0.06 0.05 0.04 0.03 0.03 0.02 0.02 0.02 0.01 0.01 0.01 0.01 0.01 0.03 0.02 0.02 0.03
0.00 0.00 0.01 0.01 0.01 0.00 0.00 0.01 0.02 0.03 0.03 0.03 0.04 0.05 0.04 0.02 0.02 0.03 0.02 0.06 0.08 0.09 0.11 0.09 0.08 0.06 0.04 0.04 0.05 0.04 0.03 0.02 0.01 0.01 0.01 0.01 0.01 0.02 0.01 0.01 0.02 0.02 0.02 0.03
0.00 0.01 0.01 0.01 0.00 0.00 0.01 0.01 0.01 0.02 0.02 0.04 0.07 0.08 0.04 0.03 0.02 0.03 0.02 0.03 0.08 0.11 0.14 0.09 0.10 0.07 0.05 0.04 0.05 0.04 0.02 0.01 0.01 0.01 0.01 0.01 0.01 0.02 0.01 0.01 0.01 0.01 0.01 0.01
0.00 0.01 0.01 0.01 0.01 0.01 0.01 0.01 0.01 0.01 0.02 0.04 0.06 0.07 0.04 0.03 0.01 0.02 0.03 0.08 0.10 0.06 0.05 0.09 0.17 0.15 0.07 0.06 0.05 0.04 0.02 0.02 0.01 0.01 0.01 0.01 0.01 0.01 0.02 0.01 0.01 0.01 0.01 0.01
0.00 0.01 0.02 0.01 0.01 0.01 0.01 0.01 0.01 0.01 0.02 0.03 0.04 0.05 0.05 0.02 0.02 0.03 0.07 0.21 0.16 0.09 0.05 0.14 0.22 0.13 0.08 0.07 0.06 0.04 0.03 0.03 0.01 0.01 0.01 0.01 0.01 0.01 0.01 0.01 0.01 0.00 0.01 0.01
0.00 0.01 0.01 0.02 0.01 0.01 0.01 0.01 0.01 0.01 0.01 0.02 0.03 0.05 0.04 0.03 0.02 0.04 0.05 0.07 0.11 0.08 0.04 0.07 0.11 0.08 0.06 0.06 0.07 0.06 0.06 0.04 0.01 0.01 0.02 0.02 0.02 0.01 0.01 0.01 0.01 0.00 0.01 0.02
0.00 0.01 0.01 0.01 0.01 0.01 0.01 0.01 0.01 0.01 0.01 0.03 0.04 0.03 0.03 0.03 0.02 0.04 0.05 0.07 0.06 0.03 0.04 0.06 0.07 0.11 0.09 0.08 0.07 0.06 0.05 0.04 0.02 0.02 0.02 0.03 0.03 0.03 0.02 0.02 0.02 0.01 0.01 0.02
0.00 0.00 0.00 0.00 0.00 0.00 0.00 0.00 0.00 0.00 0.01 0.03 0.03 0.02 0.01 0.02 0.03 0.03 0.03 0.03 0.03 0.03 0.05 0.08 0.07 0.10 0.17 0.13 0.09 0.07 0.07 0.05 0.03 0.03 0.03 0.03 0.04 0.05 0.04 0.03 0.03 0.04 0.04 0.03
0.00 0.00 0.00 0.00 0.00 0.00 0.00 0.00 0.00 0.01 0.01 0.01 0.01 0.01 0.02 0.03 0.06 0.03 0.02 0.01 0.01 0.02 0.04 0.06 0.06 0.06 0.09 0.11 0.10 0.09 0.06 0.03 0.02 0.03 0.04 0.06 0.07 0.06 0.05 0.05 0.05 0.05 0.06 0.06
0.00 0.00 0.00 0.00 0.01 0.01 0.01 0.01 0.00 0.01 0.01 0.01 0.01 0.01 0.02 0.03 0.05 0.05 0.05 0.03 0.02 0.02 0.03 0.04 0.05 0.05 0.04 0.05 0.06 0.06 0.04 0.03 0.02 0.02 0.02 0.05 0.08 0.09 0.07 0.06 0.07 0.08 0.09 0.08
0.00 0.00 0.00 0.00 0.01 0.01 0.01 0.01 0.01 0.01 0.01 0.01 0.01 0.01 0.01 0.02 0.04 0.06 0.07 0.06 0.04 0.04 0.05 0.04 0.04 0.05 0.04 0.02 0.02 0.02 0.03 0.03 0.02 0.02 0.02 0.02 0.02 0.03 0.03 0.02 0.03 0.04 0.06 0.06
0.00 0.00 0.00 0.00 0.00 0.01 0.01 0.01 0.01 0.01 0.01 0.01 0.02 0.02 0.02 0.03 0.03 0.05 0.05 0.05 0.04 0.05 0.05 0.03 0.02 0.02 0.03 0.03 0.03 0.03 0.02 0.02 0.01 0.01 0.01 0.01 0.01 0.01 0.01 0.01 0.01 0.01 0.02 0.02
0.00 0.00 0.00 0.01 0.01 0.01 0.01 0.01 0.01 0.01 0.02 0.01 0.02 0.02 0.02 0.02 0.04 0.03 0.04 0.05 0.04 0.06 0.05 0.03 0.02 0.01 0.01 0.03 0.03 0.03 0.02 0.01 0.01 0.01 0.01 0.01 0.01 0.01 0.01 0.01 0.01 0.01 0.01 0.01
0.01 0.01 0.01 0.01 0.02 0.02 0.01 0.01 0.02 0.02 0.02 0.03 0.02 0.01 0.01 0.01 0.03 0.03 0.02 0.03 0.03 0.03 0.04 0.02 0.02 0.01 0.02 0.03 0.04 0.03 0.01 0.01 0.01 0.01 0.01 0.01 0.01 0.02 0.02 0.02 0.01 0.01 0.01 0.01
0.02 0.02 0.02 0.02 0.02 0.03 0.02 0.01 0.02 0.02 0.02 0.01 0.01 0.01 0.01 0.01 0.02 0.03 0.02 0.02 0.03 0.04 0.03 0.02 0.03 0.03 0.03 0.03 0.03 0.02 0.01 0.01 0.01 0.01 0.01 0.01 0.02 0.04 0.04 0.04 0.03 0.02 0.01 0.02
0.04 0.02 0.02 0.02 0.02 0.02 0.03 0.02 0.02 0.02 0.02 0.02 0.02 0.02 0.02 0.02 0.02 0.02 0.02 0.02 0.01 0.02 0.03 0.03 0.04 0.03 0.03 0.03 0.03 0.02 0.01 0.01 0.01 0.02 0.02 0.02 0.04 0.04 0.04 0.03 0.02 0.02 0.02 0.02
0.05 0.06 0.04 0.04 0.03 0.02 0.01 0.01 0.01 0.02 0.03 0.03 0.03 0.03 0.02 0.02 0.02 0.01 0.01 0.02 0.02 0.03 0.04 0.04 0.04 0.04 0.04 0.03 0.03 0.03 0.02 0.03 0.03 0.03 0.04 0.04 0.04 0.04 0.04 0.03 0.02 0.02 0.02 0.03
0.04 0.04 0.04 0.03 0.02 0.01 0.01 0.01 0.01 0.01 0.03 0.04 0.05 0.05 0.04 0.02 0.02 0.02 0.01 0.02 0.02 0.03 0.06 0.09 0.06 0.05 0.05 0.04 0.04 0.05 0.04 0.04 0.05 0.04 0.04 0.04 0.04 0.04 0.04 0.04 0.04 0.04 0.04 0.04
MSLP
1008.68 1009.20 1009.44 1009.47 1009.37 1009.28 1009.29 1009.48 1009.87 1010.41 1011.00 1011.54 1011.92 1012.08 1012.00 1011.70 1011.26 1010.79 1010.38 1010.11 1010.02 1010.09 1010.29 1010.56 1010.83 1011.07 1011.24 1011.36 1011.46 1011.58 1011.77 1012.02 1012.34 1012.70 1013.05 1013.35 1013.55 1013.64 1013.62 1013.52 1013.39 1013.28 1013.23 1013.27
1009.28 1009.58 1009.59 1009.43 1009.22 1009.11 1009.19 1009.54 1010.13 1010.88 1011.65 1012.30 1012.71 1012.80 1012.58 1012.09 1011.45 1010.79 1010.24 1009.88 1009.75 1009.83 1010.08 1010.41 1010.73 1010.99 1011.17 1011.27 1011.34 1011.43 1011.59 1011.84 1012.19 1012.59 1012.98 1013.32 1013.55 1013.64 1013.59 1013.45 1013.26 1013.08 1012.98 1012.98
1009.72 1009.77 1009.56 1009.22 1008.92 1008.82 1009.01 1009.55 1010.36 1011.33 1012.28 1013.03 1013.46 1013.47 1013.10 1012.41 1011.55 1010.69 1009.98 1009.52 1009.35 1009.45 1009.75 1010.14 1010.52 1010.83 1011.02 1011.11 1011.16 1011.23 1011.38 1011.63 1011.99 1012.43 1012.88 1013.26 1013.52 1013.63 1013.57 1013.40 1013.17 1012.94 1012.79 1012.76
1009.95 1009.75 1009.33 1008.86 1008.52 1008.48 1008.83 1009.58 1010.63 1011.82 1012.94 1013.78 1014.19 1014.11 1013.56 1012.65 1011.56 1010.49 1009.61 1009.04 1008.82 1008.93 1009.27 1009.72 1010.17 1010.52 1010.74 1010.85 1010.89 1010.94 1011.08 1011.33 1011.71 1012.18 1012.67 1013.10 1013.41 1013.55 1013.52 1013.35 1013.10 1012.85 1012.67 1012.61
1009.95 1009.54 1008.97 1008.43 1008.11 1008.19 1008.73 1009.71 1011.00 1012.39 1013.64 1014.53 1014.90 1014.69 1013.95 1012.80 1011.47 1010.18 1009.13 1008.44 1008.16 1008.25 1008.63 1009.14 1009.65 1010.06 1010.32 1010.45 1010.49 1010.54 1010.66 1010.92 1011.31 1011.80 1012.34 1012.82 1013.19 1013.39 1013.40 1013.26 1013.04 1012.79 1012.61 1012.54
1009.74 1009.19 1008.54 1008.00 1007.77 1008.01 1008.76 1009.97 1011.48 1013.03 1014.37 1015.25 1015.54 1015.17 1014.21 1012.82 1011.25 1009.74 1008.51 1007.70 1007.35 1007.43 1007.83 1008.39 1008.96 1009.43 1009.74 1009.90 1009.96 1010.01 1010.13 1010.38 1010.78 1011.30 1011.87 1012.42 1012.85 1013.12 1013.21 1013.14 1012.97 1012.77 1012.61 1012.55
1009.38 1008.76 1008.10 1007.64 1007.56 1007.98 1008.94 1010.36 1012.02 1013.67 1015.02 1015.85 1016.01 1015.45 1014.27 1012.64 1010.85 1009.14 1007.76 1006.83 1006.42 1006.49 1006.90 1007.50 1008.13 1008.66 1009.02 1009.22 1009.31 1009.38 1009.50 1009.76 1010.17 1010.71 1011.32 1011.92 1012.42 1012.78 1012.96 1012.99 1012.90 1012.77 1012.67 1012.65
1008.96 1008.33 1007.74 1007.41 1007.50 1008.11 1009.25 1010.80 1012.54 1014.20 1015.50 1016.21 1016.19 1015.44 1014.04 1012.21 1010.23 1008.37 1006.87 1005.86 1005.41 1005.46 1005.89 1006.53 1007.20 1007.78 1008.20 1008.46 1008.59 1008.69 1008.83 1009.10 1009.53 1010.08 1010.73 1011.38 1011.96 1012.41 1012.70 1012.83 1012.85 1012.82 1012.80 1012.84
1008.57 1007.99 1007.52 1007.34 1007.59 1008.36 1009.61 1011.21 1012.94 1014.52 1015.68 1016.21 1016.00 1015.05 1013.48 1011.50 1009.40 1007.46 1005.89 1004.85 1004.38 1004.42 1004.86 1005.53 1006.24 1006.88 1007.35 1007.66 1007.85 1007.99 1008.18 1008.47 1008.91 1009.49 1010.17 1010.87 1011.52 1012.06 1012.45 1012.70 1012.84 1012.92 1012.99 1013.10
1008.29 1007.81 1007.47 1007.43 1007.82 1008.66 1009.94 1011.50 1013.11 1014.52 1015.48 1015.80 1015.40 1014.29 1012.60 1010.55 1008.42 1006.46 1004.91 1003.88 1003.42 1003.47 1003.92 1004.60 1005.34 1006.01 1006.54 1006.91 1007.16 1007.36 1007.59 1007.92 1008.40 1009.00 1009.70 1010.44 1011.15 1011.76 1012.25 1012.61 1012.86 1013.05 1013.22 1013.42
1008.21 1007.84 1007.62 1007.69 1008.14 1008.99 1010.18 1011.59 1012.99 1014.16 1014.87 1014.98 1014.41 1013.20 1011.48 1009.46 1007.39 1005.52 1004.05 1003.08 1002.66 1002.73 1003.18 1003.85 1004.58 1005.26 1005.82 1006.24 1006.56 1006.82 1007.12 1007.51 1008.02 1008.66 1009.38 1010.14 1010.89 1011.56 1012.12 1012.58 1012.93 1013.22 1013.48 1013.75
1008.35 1008.09 1007.96 1008.08 1008.52 1009.28 1010.31 1011.49 1012.61 1013.49 1013.95 1013.86 1013.18 1011.94 1010.29 1008.39 1006.49 1004.79 1003.46 1002.60 1002.23 1002.31 1002.73 1003.35 1004.04 1004.70 1005.26 1005.71 1006.08 1006.42 1006.79 1007.24 1007.79 1008.46 1009.21 1009.99 1010.75 1011.46 1012.08 1012.60 1013.04 1013.41 1013.75 1014.09
1008.73 1008.54 1008.46 1008.57 1008.93 1009.54 1010.34 1011.23 1012.05 1012.64 1012.86 1012.62 1011.89 1010.72 1009.21 1007.53 1005.87 1004.41 1003.27 1002.53 1002.21 1002.27 1002.62 1003.15 1003.75 1004.34 1004.88 1005.34 1005.75 1006.15 1006.59 1007.10 1007.71 1008.41 1009.17 1009.96 1010.74 1011.46 1012.11 1012.68 1013.18 1013.62 1014.03 1014.43
1009.30 1009.15 1009.07 1009.13 1009.36 1009.77 1010.31 1010.89 1011.41 1011.73 1011.76 1011.43 1010.73 1009.69 1008.42 1007.03 1005.66 1004.47 1003.53 1002.91 1002.62 1002.63 1002.87 1003.26 1003.72 1004.20 1004.66 1005.10 1005.53 1005.98 1006.49 1007.07 1007.74 1008.47 1009.25 1010.05 1010.82 1011.55 1012.21 1012.81 1013.35 1013.85 1014.32 1014.77
1010.00 1009.86 1009.75 1009.72 1009.80 1009.99 1010.27 1010.57 1010.81 1010.91 1010.81 1010.46 1009.85 1009.01 1008.02 1006.95 1005.90 1004.98 1004.23 1003.71 1003.42 1003.33 1003.41 1003.61 1003.89 1004.22 1004.57 1004.96 1005.39 1005.89 1006.46 1007.11 1007.84 1008.61 1009.41 1010.21 1010.98 1011.70 1012.37 1012.99 1013.57 1014.11 1014.62 1015.11
1010.76 1010.59 1010.43 1010.31 1010.24 1010.23 1010.27 1010.32 1010.34 1010.29 1010.11 1009.79 1009.32 1008.72 1008.02 1007.27 1006.53 1005.85 1005.27 1004.81 1004.47 1004.25 1004.14 1004.12 1004.18 1004.33 1004.56 1004.88 1005.30 1005.83 1006.47 1007.19 1007.97 1008.79 1009.61 1010.42 1011.19 1011.91 1012.58 1013.21 1013.81 1014.39 1014.94 1015.48
1011.49 1011.30 1011.09 1010.87 1010.66 1010.48 1010.33 1010.19 1010.05 1009.90 1009.70 1009.44 1009.13 1008.76 1008.34 1007.88 1007.41 1006.93 1006.46 1006.01 1005.60 1005.22 1004.90 1004.65 1004.50 1004.46 1004.56 1004.81 1005.22 1005.78 1006.47 1007.26 1008.10 1008.97 1009.83 1010.65 1011.42 1012.14 1012.82 1013.46 1014.08 1014.69 1015.28 1015.85
1012.14 1011.93 1011.66 1011.36 1011.05 1010.74 1010.45 1010.17 1009.93 1009.71 1009.52 1009.35 1009.19 1009.02 1008.83 1008.61 1008.33 1008.00 1007.59 1007.13 1006.62 1006.08 1005.56 1005.10 1004.75 1004.55 1004.54 1004.73 1005.13 1005.71 1006.46 1007.31 1008.22 1009.14 1010.03 1010.87 1011.65 1012.38 1013.06 1013.72 1014.36 1015.00 1015.62 1016.22
1012.67 1012.43 1012.12 1011.77 1011.38 1010.98 1010.58 1010.22 1009.90 1009.66 1009.48 1009.38 1009.34 1009.32 1009.30 1009.24 1009.11 1008.86 1008.49 1007.99 1007.38 1006.71 1006.02 1005.40 1004.89 1004.57 1004.48 1004.63 1005.03 1005.64 1006.44 1007.34 1008.30 1009.27 1010.19 1011.06 1011.86 1012.59 1013.29 1013.96 1014.62 1015.27 1015.92 1016.54
1013.06 1012.79 1012.45 1012.05 1011.60 1011.14 1010.67 1010.25 1009.89 1009.63 1009.47 1009.41 1009.44 1009.52 1009.60 1009.64 1009.58 1009.38 1009.02 1008.49 1007.82 1007.06 1006.27 1005.53 1004.94 1004.55 1004.41 1004.55 1004.95 1005.60 1006.43 1007.38 1008.38 1009.37 1010.32 1011.20 1012.01 1012.76 1013.46 1014.14 1014.82 1015.49 1016.15 1016.78
1013.29 1012.98 1012.61 1012.18 1011.69 1011.18 1010.67 1010.21 1009.82 1009.54 1009.37 1009.33 1009.39 1009.51 1009.65 1009.73 1009.71 1009.53 1009.18 1008.64 1007.95 1007.15 1006.33 1005.57 1004.94 1004.54 1004.40 1004.54 1004.96 1005.62 1006.46 1007.42 1008.44 1009.44 1010.40 1011.29 1012.10 1012.86 1013.57 1014.26 1014.94 1015.62 1016.29 1016.92
1013.34 1013.00 1012.59 1012.12 1011.61 1011.07 1010.53 1010.04 1009.63 1009.33 1009.15 1009.10 1009.15 1009.28 1009.42 1009.52 1009.52 1009.36 1009.03 1008.52 1007.86 1007.09 1006.31 1005.58 1004.99 1004.62 1004.50 1004.66 1005.08 1005.73 1006.56 1007.50 1008.50 1009.48 1010.42 1011.30 1012.11 1012.86 1013.58 1014.28 1014.97 1015.65 1016.31 1016.95
1013.18 1012.80 1012.36 1011.86 1011.33 1010.78 1010.23 1009.73 1009.31 1008.99 1008.80 1008.73 1008.76 1008.87 1009.00 1009.10 1009.10 1008.98 1008.69 1008.24 1007.66 1006.99 1006.30 1005.67 1005.16 1004.85 1004.76 1004.93 1005.34 1005.95 1006.74 1007.62 1008.55 1009.48 1010.38 1011.23 1012.03 1012.78 1013.50 1014.21 1014.90 1015.58 1016.25 1016.88
1012.80 1012.37 1011.90 1011.39 1010.86 1010.31 1009.78 1009.29 1008.88 1008.56 1008.36 1008.27 1008.28 1008.36 1008.48 1008.57 1008.59 1008.51 1008.29 1007.95 1007.49 1006.95 1006.39 1005.88 1005.48 1005.24 1005.19 1005.35 1005.72 1006.27 1006.96 1007.75 1008.58 1009.43 1010.27 1011.08 1011.85 1012.60 1013.33 1014.05 1014.76 1015.45 1016.11 1016.73
1012.16 1011.71 1011.22 1010.71 1010.20 1009.69 1009.20 1008.75 1008.38 1008.08 1007.89 1007.80 1007.79 1007.85 1007.95 1008.04 1008.09 1008.06 1007.93 1007.70 1007.38 1007.00 1006.60 1006.22 1005.93 1005.76 1005.73 1005.87 1006.18 1006.62 1007.19 1007.85 1008.57 1009.32 1010.08 1010.84 1011.59 1012.34 1013.09 1013.83 1014.56 1015.26 1015.94 1016.56
1011.28 1010.80 1010.32 1009.85 1009.38 1008.94 1008.53 1008.15 1007.84 1007.60 1007.44 1007.35 1007.34 1007.39 1007.48 1007.58 1007.65 1007.67 1007.63 1007.52 1007.34 1007.11 1006.86 1006.61 1006.42 1006.30 1006.29 1006.38 1006.60 1006.93 1007.37 1007.89 1008.47 1009.11 1009.80 1010.51 1011.25 1012.01 1012.78 1013.56 1014.32 1015.06 1015.75 1016.38
Thickness
5839 5820 5809 5817 5824 5824 5820 5812 5809 5821 5838 5827 5818 5817 5823 5828 5827 5823 5819 5818 5817 5817 5820 5821 5819 5818 5815 5812 5809 5806 5803 5802 5800 5796 5793 5790 5787 5787 5787 5786 5785 5784 5781 5780
5816 5810 5829 5839 5838 5831 5821 5810 5810 5823 5836 5826 5814 5814 5824 5828 5827 5827 5823 5821 5820 5818 5817 5818 5818 5817 5813 5810 5809 5806 5804 5802 5800 5798 5795 5792 5790 5787 5786 5785 5784 5783 5782 5780
5809 5825 5844 5839 5831 5823 5820 5814 5814 5816 5824 5823 5811 5800 5809 5822 5829 5830 5829 5826 5825 5822 5817 5817 5816 5815 5813 5810 5809 5809 5805 5803 5801 5799 5796 5793 5789 5786 5783 5782 5781 5782 5781 5779
5819 5837 5839 5831 5827 5825 5810 5832 5831 5823 5806 5791 5800 5772 5796 5810 5816 5822 5823 5824 5824 5826 5822 5819 5818 5815 5814 5813 5812 5810 5807 5804 5802 5799 5795 5790 5785 5781 5781 5781 5781 5781 5780 5779
5817 5833 5831 5825 5832 5835 5826 5840 5832 5822 5804 5790 5794 5777 5786 5805 5803 5812 5820 5825 5827 5828 5827 5823 5821 5819 5817 5816 5813 5809 5806 5804 5802 5799 5796 5791 5786 5784 5782 5781 5780 5779 5778 5777
5827 5844 5842 5839 5846 5847 5841 5829 5817 5804 5787 5768 5785 5776 5775 5795 5806 5813 5821 5827 5829 5830 5829 5825 5823 5820 5817 5815 5812 5808 5804 5801 5800 5798 5795 5791 5787 5783 5780 5778 5776 5775 5775 5774
5812 5828 5844 5850 5834 5836 5829 5796 5769 5762 5753 5759 5784 5778 5780 5810 5822 5823 5823 5826 5828 5828 5825 5822 5819 5816 5814 5812 5809 5806 5803 5799 5798 5797 5794 5791 5788 5784 5780 5777 5775 5773 5771 5771
5788 5794 5828 5841 5832 5821 5819 5798 5765 5749 5745 5758 5778 5772 5791 5820 5828 5830 5828 5828 5827 5825 5823 5821 5820 5817 5813 5811 5807 5805 5802 5799 5797 5795 5792 5791 5788 5784 5781 5778 5776 5773 5772 5771
5788 5794 5833 5845 5847 5835 5815 5800 5796 5771 5763 5753 5761 5777 5798 5818 5819 5821 5822 5823 5822 5823 5822 5819 5817 5816 5813 5810 5808 5805 5802 5799 5796 5794 5791 5789 5786 5783 5780 5778 5776 5774 5772 5771
5807 5796 5817 5836 5842 5837 5828 5814 5786 5767 5750 5742 5756 5766 5771 5792 5802 5810 5812 5814 5817 5819 5818 5816 5814 5812 5812 5810 5806 5804 5802 5799 5796 5793 5791 5788 5785 5782 5780 5777 5774 5772 5771 5769
5811 5790 5798 5812 5811 5809 5814 5806 5787 5767 5760 5743 5738 5755 5796 5797 5803 5805 5808 5811 5812 5815 5815 5813 5812 5811 5810 5808 5805 5801 5798 5796 5793 5791 5789 5786 5783 5781 5778 5775 5773 5771 5769 5767
5805 5785 5776 5793 5817 5828 5817 5805 5787 5767 5759 5754 5744 5756 5808 5807 5809 5808 5807 5811 5812 5814 5814 5813 5812 5809 5806 5803 5801 5798 5796 5793 5792 5790 5787 5784 5781 5778 5775 5772 5771 5769 5767 5765
5801 5778 5759 5767 5785 5802 5804 5805 5797 5781 5763 5751 5743 5759 5803 5804 5804 5806 5807 5809 5810 5812 5811 5809 5806 5804 5802 5800 5798 5795 5792 5790 5789 5787 5783 5780 5777 5774 5771 5769 5768 5766 5764 5762
5806 5773 5762 5756 5765 5783 5789 5797 5798 5780 5757 5752 5757 5767 5785 5792 5795 5800 5804 5806 5806 5807 5806 5803 5800 5799 5798 5797 5795 5794 5791 5789 5786 5783 5779 5775 5773 5771 5769 5766 5764 5762 5761 5758
5793 5769 5774 5777 5786 5791 5790 5793 5796 5786 5776 5764 5768 5772 5780 5790 5795 5799 5801 5801 5800 5798 5799 5798 5796 5794 5793 5792 5790 5789 5788 5786 5783 5779 5775 5772 5771 5768 5765 5762 5760 5758 5756 5754
5776 5766 5766 5767 5782 5785 5784 5791 5793 5788 5785 5777 5775 5772 5788 5794 5796 5794 5794 5794 5792 5792 5793 5794 5794 5792 5789 5789 5786 5785 5783 5782 5780 5775 5771 5770 5767 5764 5760 5758 5755 5753 5751 5749
5760 5756 5747 5744 5764 5769 5760 5778 5784 5782 5785 5780 5768 5774 5786 5785 5786 5787 5789 5790 5788 5787 5788 5788 5788 5787 5787 5786 5784 5780 5779 5777 5774 5771 5768 5765 5763 5759 5756 5754 5750 5747 5746 5744
5755 5744 5732 5732 5744 5733 5757 5785 5788 5781 5780 5783 5780 5781 5785 5785 5784 5786 5788 5786 5785 5784 5783 5783 5783 5783 5783 5782 5781 5779 5776 5772 5769 5766 5763 5761 5759 5755 5752 5749 5745 5743 5741 5738
5758 5743 5727 5719 5721 5732 5756 5774 5776 5767 5760 5775 5774 5777 5780 5782 5777 5774 5782 5784 5783 5783 5781 5780 5780 5779 5778 5777 5776 5773 5769 5766 5763 5760 5758 5757 5754 5751 5748 5744 5741 5739 5736 5733
5748 5742 5725 5716 5716 5716 5740 5770 5781 5769 5744 5767 5770 5769 5771 5770 5753 5758 5775 5778 5778 5778 5777 5776 5774 5772 5770 5770 5770 5765 5761 5759 5757 5756 5755 5753 5750 5747 5743 5740 5737 5735 5732 5728
5723 5720 5714 5709 5708 5719 5748 5767 5771 5738 5735 5759 5763 5763 5763 5759 5758 5765 5770 5771 5771 5771 5771 5771 5768 5764 5763 5764 5762 5757 5755 5754 5754 5753 5751 5748 5745 5742 5740 5736 5733 5730 5727 5723
5708 5704 5703 5699 5697 5709 5747 5753 5742 5738 5750 5754 5756 5758 5757 5758 5760 5760 5761 5760 5762 5761 5760 5760 5757 5755 5756 5756 5753 5749 5748 5751 5749 5747 5744 5742 5740 5737 5735 5730 5727 5723 5720 5716
5707 5709 5706 5704 5707 5727 5740 5742 5745 5746 5744 5747 5749 5751 5752 5750 5749 5750 5750 5750 5751 5752 5752 5751 5749 5747 5747 5748 5747 5742 5743 5744 5742 5739 5736 5735 5732 5730 5727 5723 5720 5716 5713 5709
5705 5711 5705 5702 5711 5723 5729 5734 5738 5741 5741 5743 5745 5746 5746 5742 5742 5742 5741 5741 5741 5742 5742 5742 5741 5739 5738 5740 5740 5739 5738 5737 5734 5731 5729 5727 5724 5720 5718 5716 5713 5709 5705 5701
5696 5699 5693 5694 5705 5711 5717 5723 5729 5733 5735 5736 5738 5740 5739 5737 5734 5733 5731 5731 5732 5732 5733 5733 5731 5729 5730 5731 5731 5731 5731 5729 5725 5722 5720 5718 5715 5712 5709 5706 5704 5702 5700 5697
5689 5689 5686 5686 5698 5698 5704 5716 5722 5721 5722 5724 5726 5726 5730 5730 5727 5725 5723 5723 5724 5723 5722 5721 5720 5720 5720 5721 5721 5722 5722 5721 5717 5714 5711 5709 5706 5703 5700 5696 5693 5692 5690 5688